This demonstration page uses our WeatherBlox Daily Observations layout. Learn more.

41.55636, -103.73856

Hourly Observations for June 3, 2017

Temp ( °F °C ) Dew Point ( °F °C ) Humidity (%) Winds ( mph kmh ) Pressure ( in mb ) Visibility ( mi km ) Precip ( " mm )
12:53 am 00:53 Clear 55 12.8 51 10.6 87 87 N 5 7 29.95 1014 10 16.0934 0 0
1:53 am 01:53 Clear 52 11.1 49 9.4 89 89 WNW 6 9 29.97 1015 10 16.0934 0 0
2:53 am 02:53 Clear 51 10.6 48 8.9 89 89 WNW 5 7 29.98 1015 10 16.0934 0 0
3:53 am 03:53 Clear 50 10 47 8.3 89 89 W 7 11 29.98 1015 10 16.0934 0 0
4:53 am 04:53 Clear 50 10 47 8.3 89 89 NW 8 13 30.01 1016 10 16.0934 0 0
5:53 am 05:53 Sunny 51 10.6 47 8.3 86 86 NW 8 13 30.04 1017 10 16.0934 0 0
6:53 am 06:53 Sunny 55 12.8 50 10 83 83 NW 8 13 30.06 1018 10 16.0934 0 0
7:53 am 07:53 Sunny 61 16.1 51 10.6 70 70 WNW 8 13 30.06 1018 10 16.0934 0 0
8:53 am 08:53 Sunny 67 19.4 52 11.1 59 59 NW 8 13 30.07 1018 10 16.0934 0 0
9:53 am 09:53 Sunny 73 22.8 53 11.7 50 50 N 7 11 30.06 1018 10 16.0934 0 0
10:53 am 10:53 Cloudy 73 22.8 50 10 44 44 NNE 10 17 30.06 1018 10 16.0934 0 0
11:53 am 11:53 Sunny 77 25 42 5.6 29 29 ENE 9 15 30.05 1018 10 16.0934 0 0
12:53 pm 12:53 Sunny 78 25.6 42 5.6 28 28 ENE 9 15 30.06 1018 10 16.0934 0 0
1:53 pm 13:53 Sunny 79 26.1 42 5.6 27 27 NE 12 19 30.04 1017 10 16.0934 0 0
2:53 pm 14:53 Sunny 81 27.2 42 5.6 25 25 ENE 12 19 30.03 1017 10 16.0934 0 0
3:53 pm 15:53 Sunny 81 27.2 41 5 24 24 NE 7 11 30.01 1016 10 16.0934 0 0
4:53 pm 16:53 Sunny 80 26.7 40 4.4 24 24 ENE 8 13 30.01 1016 10 16.0934 0 0
5:53 pm 17:53 Sunny 80 26.7 40 4.4 24 24 N 9 15 30 1016 10 16.0934 0 0
6:53 pm 18:53 Sunny 77 25 41 5 28 28 ENE 8 13 30 1016 10 16.0934 0 0
7:53 pm 19:53 Sunny 73 22.8 45 7.2 37 37 E 8 13 30 1016 10 16.0934 0 0
8:53 pm 20:53 Clear 65 18.3 45 7.2 49 49 ENE 8 13 30.01 1016 10 16.0934 0 0
9:53 pm 21:53 Clear 64 17.8 44 6.7 48 48 SSE 3 6 30.02 1017 10 16.0934 0 0
10:53 pm 22:53 Clear 58 14.4 45 7.2 62 62 undefined N/A 30.04 1017 10 16.0934 0 0
11:53 pm 23:53 Clear 57 13.9 44 6.7 62 62 E 5 7 30.03 1017 10 16.0934 0 0

Powered by AerisWeather